owner,sensor,date,latitude,longitude,vertical_datum,sea_water_practical_salinity,qcFlag 
SCCF RECON,ioos:station:SCCF:13:1,2017-07-01T00:00:00Z,26.5255,-82.0032,2.58,24.55,1111122 
SCCF RECON,ioos:station:SCCF:13:1,2017-07-01T01:00:00Z,26.5255,-82.0032,2.57,25.58,1111122 
SCCF RECON,ioos:station:SCCF:13:1,2017-07-01T02:00:00Z,26.5255,-82.0032,2.54,26.18,1111122 
SCCF RECON,ioos:station:SCCF:13:1,2017-07-01T03:00:00Z,26.5255,-82.0032,2.45,25.72,1111122 
SCCF RECON,ioos:station:SCCF:13:1,2017-07-01T04:00:00Z,26.5255,-82.0032,2.38,16.41,1111122 
SCCF RECON,ioos:station:SCCF:13:1,2017-07-01T05:00:00Z,26.5255,-82.0032,2.32,12.99,1111122 
SCCF RECON,ioos:station:SCCF:13:1,2017-07-01T06:00:00Z,26.5255,-82.0032,2.276,11.71,1111122 
SCCF RECON,ioos:station:SCCF:13:1,2017-07-01T07:00:00Z,26.5255,-82.0032,2.28,10.58,1111122 
SCCF RECON,ioos:station:SCCF:13:1,2017-07-01T08:00:00Z,26.5255,-82.0032,2.38,9.83,1111122 
SCCF RECON,ioos:station:SCCF:13:1,2017-07-01T09:00:00Z,26.5255,-82.0032,2.49,17.33,1111122 
SCCF RECON,ioos:station:SCCF:13:1,2017-07-01T10:00:00Z,26.5255,-82.0032,2.56,20.13,1111122 
SCCF RECON,ioos:station:SCCF:13:1,2017-07-01T11:00:00Z,26.5255,-82.0032,2.62,23.88,1111122 
SCCF RECON,ioos:station:SCCF:13:1,2017-07-01T12:00:00Z,26.5255,-82.0032,2.66,27.36,1111122 
SCCF RECON,ioos:station:SCCF:13:1,2017-07-01T13:00:00Z,26.5255,-82.0032,2.68,28.63,1111122 
SCCF RECON,ioos:station:SCCF:13:1,2017-07-01T14:00:00Z,26.5255,-82.0032,2.65,29.07,1111122 
SCCF RECON,ioos:station:SCCF:13:1,2017-07-01T15:00:00Z,26.5255,-82.0032,2.599,29.18,1111122 
SCCF RECON,ioos:station:SCCF:13:1,2017-07-01T16:00:00Z,26.5255,-82.0032,2.53,28.34,1111122 
SCCF RECON,ioos:station:SCCF:13:1,2017-07-01T17:00:00Z,26.5255,-82.0032,2.452,24.53,1111122 
SCCF RECON,ioos:station:SCCF:13:1,2017-07-01T18:00:00Z,26.5255,-82.0032,2.375,17.03,1111122 
SCCF RECON,ioos:station:SCCF:13:1,2017-07-01T19:00:00Z,26.5255,-82.0032,2.326,15.95,1111122 
SCCF RECON,ioos:station:SCCF:13:1,2017-07-01T20:00:00Z,26.5255,-82.0032,2.32,13.96,1111122 
SCCF RECON,ioos:station:SCCF:13:1,2017-07-01T21:00:00Z,26.5255,-82.0032,2.381,13.0,1111122 
SCCF RECON,ioos:station:SCCF:13:1,2017-07-01T22:00:00Z,26.5255,-82.0032,2.45,13.02,1111122 
SCCF RECON,ioos:station:SCCF:13:1,2017-07-01T23:00:00Z,26.5255,-82.0032,2.481,21.54,1111122 
SCCF RECON,ioos:station:SCCF:13:1,2017-07-02T00:00:00Z,26.5255,-82.0032,2.49,21.93,1111122 
SCCF RECON,ioos:station:SCCF:13:1,2017-07-02T01:00:00Z,26.5255,-82.0032,2.519,24.96,1111122 
SCCF RECON,ioos:station:SCCF:13:1,2017-07-02T02:00:00Z,26.5255,-82.0032,2.5,25.08,1111122 
SCCF RECON,ioos:station:SCCF:13:1,2017-07-02T03:00:00Z,26.5255,-82.0032,2.46,25.77,1111122 
SCCF RECON,ioos:station:SCCF:13:1,2017-07-02T04:00:00Z,26.5255,-82.0032,2.44,24.53,1111122 
SCCF RECON,ioos:station:SCCF:13:1,2017-07-02T05:00:00Z,26.5255,-82.0032,2.39,19.67,1111122 
SCCF RECON,ioos:station:SCCF:13:1,2017-07-02T06:00:00Z,26.5255,-82.0032,2.33,12.3,1111122 
SCCF RECON,ioos:station:SCCF:13:1,2017-07-02T07:00:00Z,26.5255,-82.0032,2.3,11.27,1111122 
SCCF RECON,ioos:station:SCCF:13:1,2017-07-02T08:00:00Z,26.5255,-82.0032,2.34,10.68,1111122 
SCCF RECON,ioos:station:SCCF:13:1,2017-07-02T09:00:00Z,26.5255,-82.0032,2.41,16.65,1111122 
SCCF RECON,ioos:station:SCCF:13:1,2017-07-02T10:00:00Z,26.5255,-82.0032,2.52,20.2,1111122 
SCCF RECON,ioos:station:SCCF:13:1,2017-07-02T11:00:00Z,26.5255,-82.0032,2.59,22.42,1111122 
SCCF RECON,ioos:station:SCCF:13:1,2017-07-02T12:00:00Z,26.5255,-82.0032,2.63,26.64,1111122 
SCCF RECON,ioos:station:SCCF:13:1,2017-07-02T13:00:00Z,26.5255,-82.0032,2.67,27.95,1111122 
SCCF RECON,ioos:station:SCCF:13:1,2017-07-02T14:00:00Z,26.5255,-82.0032,2.679,28.8,1111122 
SCCF RECON,ioos:station:SCCF:13:1,2017-07-02T15:00:00Z,26.5255,-82.0032,2.631,29.29,1111122 
SCCF RECON,ioos:station:SCCF:13:1,2017-07-02T16:00:00Z,26.5255,-82.0032,2.571,29.34,1111122 
SCCF RECON,ioos:station:SCCF:13:1,2017-07-02T17:00:00Z,26.5255,-82.0032,2.47,27.83,1111122 
SCCF RECON,ioos:station:SCCF:13:1,2017-07-02T18:00:00Z,26.5255,-82.0032,2.392,18.88,1111122 
SCCF RECON,ioos:station:SCCF:13:1,2017-07-02T19:00:00Z,26.5255,-82.0032,2.32,15.58,1111122 
SCCF RECON,ioos:station:SCCF:13:1,2017-07-02T20:00:00Z,26.5255,-82.0032,2.256,13.45,1111122 
SCCF RECON,ioos:station:SCCF:13:1,2017-07-02T21:00:00Z,26.5255,-82.0032,2.24,12.05,1111122 
SCCF RECON,ioos:station:SCCF:13:1,2017-07-02T22:00:00Z,26.5255,-82.0032,2.312,11.26,1111122 
SCCF RECON,ioos:station:SCCF:13:1,2017-07-02T23:00:00Z,26.5255,-82.0032,2.39,11.39,1111122 
SCCF RECON,ioos:station:SCCF:13:1,2017-07-03T00:00:00Z,26.5255,-82.0032,2.43,14.93,1111122 
SCCF RECON,ioos:station:SCCF:13:1,2017-07-03T01:00:00Z,26.5255,-82.0032,2.486,19.08,1111122 
SCCF RECON,ioos:station:SCCF:13:1,2017-07-03T02:00:00Z,26.5255,-82.0032,2.51,22.12,1111122 
SCCF RECON,ioos:station:SCCF:13:1,2017-07-03T03:00:00Z,26.5255,-82.0032,2.51,22.83,1111122 
SCCF RECON,ioos:station:SCCF:13:1,2017-07-03T04:00:00Z,26.5255,-82.0032,2.51,23.26,1111122 
SCCF RECON,ioos:station:SCCF:13:1,2017-07-03T05:00:00Z,26.5255,-82.0032,2.46,23.65,1111122 
SCCF RECON,ioos:station:SCCF:13:1,2017-07-03T06:00:00Z,26.5255,-82.0032,2.41,22.89,1111122 
SCCF RECON,ioos:station:SCCF:13:1,2017-07-03T07:00:00Z,26.5255,-82.0032,2.35,19.49,1111122 
SCCF RECON,ioos:station:SCCF:13:1,2017-07-03T08:00:00Z,26.5255,-82.0032,2.32,11.41,1111122 
SCCF RECON,ioos:station:SCCF:13:1,2017-07-03T09:00:00Z,26.5255,-82.0032,2.37,10.9,1111122 
SCCF RECON,ioos:station:SCCF:13:1,2017-07-03T10:00:00Z,26.5255,-82.0032,2.46,19.09,1111122 
SCCF RECON,ioos:station:SCCF:13:1,2017-07-03T11:00:00Z,26.5255,-82.0032,2.538,20.73,1111122 
SCCF RECON,ioos:station:SCCF:13:1,2017-07-03T12:00:00Z,26.5255,-82.0032,2.61,23.43,1111122 
SCCF RECON,ioos:station:SCCF:13:1,2017-07-03T13:00:00Z,26.5255,-82.0032,2.661,26.28,1111122 
SCCF RECON,ioos:station:SCCF:13:1,2017-07-03T14:00:00Z,26.5255,-82.0032,2.709,27.67,1111122 
SCCF RECON,ioos:station:SCCF:13:1,2017-07-03T15:00:00Z,26.5255,-82.0032,2.715,28.17,1111122 
SCCF RECON,ioos:station:SCCF:13:1,2017-07-03T16:00:00Z,26.5255,-82.0032,2.666,28.29,1111122 
SCCF RECON,ioos:station:SCCF:13:1,2017-07-03T17:00:00Z,26.5255,-82.0032,2.56,28.32,1111122 
SCCF RECON,ioos:station:SCCF:13:1,2017-07-03T18:00:00Z,26.5255,-82.0032,2.431,24.06,1111122 
SCCF RECON,ioos:station:SCCF:13:1,2017-07-03T19:00:00Z,26.5255,-82.0032,2.36,18.8,1111122 
SCCF RECON,ioos:station:SCCF:13:1,2017-07-03T20:00:00Z,26.5255,-82.0032,2.297,15.93,1111122 
SCCF RECON,ioos:station:SCCF:13:1,2017-07-03T21:00:00Z,26.5255,-82.0032,2.231,13.36,1111122 
SCCF RECON,ioos:station:SCCF:13:1,2017-07-03T22:00:00Z,26.5255,-82.0032,2.206,12.31,1111122 
SCCF RECON,ioos:station:SCCF:13:1,2017-07-03T23:00:00Z,26.5255,-82.0032,2.275,11.59,1111122 
SCCF RECON,ioos:station:SCCF:13:1,2017-07-04T00:00:00Z,26.5255,-82.0032,2.35,10.98,1111122 
SCCF RECON,ioos:station:SCCF:13:1,2017-07-04T01:00:00Z,26.5255,-82.0032,2.442,10.95,1111122 
SCCF RECON,ioos:station:SCCF:13:1,2017-07-04T02:00:00Z,26.5255,-82.0032,2.48,16.85,1111122 
SCCF RECON,ioos:station:SCCF:13:1,2017-07-04T03:00:00Z,26.5255,-82.0032,2.5,18.39,1111122 
SCCF RECON,ioos:station:SCCF:13:1,2017-07-04T04:00:00Z,26.5255,-82.0032,2.5,20.82,1111122 
SCCF RECON,ioos:station:SCCF:13:1,2017-07-04T05:00:00Z,26.5255,-82.0032,2.51,22.86,1111122 
SCCF RECON,ioos:station:SCCF:13:1,2017-07-04T06:00:00Z,26.5255,-82.0032,2.503,24.69,1111122 
SCCF RECON,ioos:station:SCCF:13:1,2017-07-04T07:00:00Z,26.5255,-82.0032,2.45,24.8,1111122 
SCCF RECON,ioos:station:SCCF:13:1,2017-07-04T08:00:00Z,26.5255,-82.0032,2.37,21.97,1111122 
SCCF RECON,ioos:station:SCCF:13:1,2017-07-04T09:00:00Z,26.5255,-82.0032,2.37,16.97,1111122 
SCCF RECON,ioos:station:SCCF:13:1,2017-07-04T10:00:00Z,26.5255,-82.0032,2.45,16.17,1111122 
SCCF RECON,ioos:station:SCCF:13:1,2017-07-04T11:00:00Z,26.5255,-82.0032,2.55,21.07,1111122 
SCCF RECON,ioos:station:SCCF:13:1,2017-07-04T12:00:00Z,26.5255,-82.0032,2.61,22.31,1111122 
SCCF RECON,ioos:station:SCCF:13:1,2017-07-04T13:00:00Z,26.5255,-82.0032,2.664,25.58,1111122 
SCCF RECON,ioos:station:SCCF:13:1,2017-07-04T14:00:00Z,26.5255,-82.0032,2.7,27.17,1111122 
SCCF RECON,ioos:station:SCCF:13:1,2017-07-04T15:00:00Z,26.5255,-82.0032,2.74,28.61,1111122 
SCCF RECON,ioos:station:SCCF:13:1,2017-07-04T16:00:00Z,26.5255,-82.0032,2.742,29.23,1111122 
SCCF RECON,ioos:station:SCCF:13:1,2017-07-04T17:00:00Z,26.5255,-82.0032,2.65,29.71,1111122 
SCCF RECON,ioos:station:SCCF:13:1,2017-07-04T18:00:00Z,26.5255,-82.0032,2.51,28.35,1111122 
SCCF RECON,ioos:station:SCCF:13:1,2017-07-04T19:00:00Z,26.5255,-82.0032,2.421,19.26,1111122 
SCCF RECON,ioos:station:SCCF:13:1,2017-07-04T20:00:00Z,26.5255,-82.0032,2.358,15.87,1111122 
SCCF RECON,ioos:station:SCCF:13:1,2017-07-04T21:00:00Z,26.5255,-82.0032,2.27,14.28,1111122 
SCCF RECON,ioos:station:SCCF:13:1,2017-07-04T22:00:00Z,26.5255,-82.0032,2.19,13.02,1111122 
SCCF RECON,ioos:station:SCCF:13:1,2017-07-04T23:00:00Z,26.5255,-82.0032,2.18,12.25,1111122 
SCCF RECON,ioos:station:SCCF:13:1,2017-07-05T00:00:00Z,26.5255,-82.0032,2.26,10.68,1111122 
SCCF RECON,ioos:station:SCCF:13:1,2017-07-05T01:00:00Z,26.5255,-82.0032,2.352,9.83,1111122 
SCCF RECON,ioos:station:SCCF:13:1,2017-07-05T02:00:00Z,26.5255,-82.0032,2.43,10.86,1111122 
SCCF RECON,ioos:station:SCCF:13:1,2017-07-05T03:00:00Z,26.5255,-82.0032,2.487,15.35,1111122 
SCCF RECON,ioos:station:SCCF:13:1,2017-07-05T04:00:00Z,26.5255,-82.0032,2.539,18.67,1111122 
SCCF RECON,ioos:station:SCCF:13:1,2017-07-05T05:00:00Z,26.5255,-82.0032,2.54,23.21,1111122 
SCCF RECON,ioos:station:SCCF:13:1,2017-07-05T06:00:00Z,26.5255,-82.0032,2.51,25.06,1111122 
SCCF RECON,ioos:station:SCCF:13:1,2017-07-05T07:00:00Z,26.5255,-82.0032,2.49,26.47,1111122 
SCCF RECON,ioos:station:SCCF:13:1,2017-07-05T08:00:00Z,26.5255,-82.0032,2.43,25.91,1111122 
SCCF RECON,ioos:station:SCCF:13:1,2017-07-05T09:00:00Z,26.5255,-82.0032,2.41,23.04,1111122 
SCCF RECON,ioos:station:SCCF:13:1,2017-07-05T10:00:00Z,26.5255,-82.0032,2.43,19.4,1111122 
SCCF RECON,ioos:station:SCCF:13:1,2017-07-05T11:00:00Z,26.5255,-82.0032,2.5,24.71,1111122 
SCCF RECON,ioos:station:SCCF:13:1,2017-07-05T12:00:00Z,26.5255,-82.0032,2.57,24.1,1111122 
SCCF RECON,ioos:station:SCCF:13:1,2017-07-05T13:00:00Z,26.5255,-82.0032,2.63,23.87,1111122 
SCCF RECON,ioos:station:SCCF:13:1,2017-07-05T14:00:00Z,26.5255,-82.0032,2.692,26.59,1111122 
SCCF RECON,ioos:station:SCCF:13:1,2017-07-05T15:00:00Z,26.5255,-82.0032,2.75,28.06,1111122 
SCCF RECON,ioos:station:SCCF:13:1,2017-07-05T16:00:00Z,26.5255,-82.0032,2.77,29.3,1111122 
SCCF RECON,ioos:station:SCCF:13:1,2017-07-05T17:00:00Z,26.5255,-82.0032,2.7,29.83,1111122 
SCCF RECON,ioos:station:SCCF:13:1,2017-07-05T18:00:00Z,26.5255,-82.0032,2.59,29.43,1111122 
SCCF RECON,ioos:station:SCCF:13:1,2017-07-05T19:00:00Z,26.5255,-82.0032,2.48,25.56,1111122 
SCCF RECON,ioos:station:SCCF:13:1,2017-07-05T20:00:00Z,26.5255,-82.0032,2.401,17.04,1111122 
SCCF RECON,ioos:station:SCCF:13:1,2017-07-05T21:00:00Z,26.5255,-82.0032,2.32,15.63,1111122 
SCCF RECON,ioos:station:SCCF:13:1,2017-07-05T22:00:00Z,26.5255,-82.0032,2.218,14.02,1111122 
SCCF RECON,ioos:station:SCCF:13:1,2017-07-05T23:00:00Z,26.5255,-82.0032,2.171,13.59,1111122 
SCCF RECON,ioos:station:SCCF:13:1,2017-07-06T00:00:00Z,26.5255,-82.0032,2.17,13.02,1111122 
SCCF RECON,ioos:station:SCCF:13:1,2017-07-06T01:00:00Z,26.5255,-82.0032,2.29,11.94,1111122 
SCCF RECON,ioos:station:SCCF:13:1,2017-07-06T02:00:00Z,26.5255,-82.0032,2.38,11.21,1111122 
SCCF RECON,ioos:station:SCCF:13:1,2017-07-06T03:00:00Z,26.5255,-82.0032,2.46,13.34,1111122 
SCCF RECON,ioos:station:SCCF:13:1,2017-07-06T04:00:00Z,26.5255,-82.0032,2.51,16.21,1111122 
SCCF RECON,ioos:station:SCCF:13:1,2017-07-06T05:00:00Z,26.5255,-82.0032,2.56,20.73,1111122 
SCCF RECON,ioos:station:SCCF:13:1,2017-07-06T06:00:00Z,26.5255,-82.0032,2.56,25.26,1111122 
SCCF RECON,ioos:station:SCCF:13:1,2017-07-06T07:00:00Z,26.5255,-82.0032,2.52,26.5,1111122 
SCCF RECON,ioos:station:SCCF:13:1,2017-07-06T08:00:00Z,26.5255,-82.0032,2.47,26.95,1111122 
SCCF RECON,ioos:station:SCCF:13:1,2017-07-06T09:00:00Z,26.5255,-82.0032,2.41,26.69,1111122 
SCCF RECON,ioos:station:SCCF:13:1,2017-07-06T10:00:00Z,26.5255,-82.0032,2.36,22.34,1111122 
SCCF RECON,ioos:station:SCCF:13:1,2017-07-06T11:00:00Z,26.5255,-82.0032,2.36,14.33,1111122 
SCCF RECON,ioos:station:SCCF:13:1,2017-07-06T12:00:00Z,26.5255,-82.0032,2.479,14.71,1111122 
SCCF RECON,ioos:station:SCCF:13:1,2017-07-06T13:00:00Z,26.5255,-82.0032,2.61,20.31,1111122 
SCCF RECON,ioos:station:SCCF:13:1,2017-07-06T14:00:00Z,26.5255,-82.0032,2.69,24.01,1111122 
SCCF RECON,ioos:station:SCCF:13:1,2017-07-06T15:00:00Z,26.5255,-82.0032,2.74,26.67,1111122 
SCCF RECON,ioos:station:SCCF:13:1,2017-07-06T16:00:00Z,26.5255,-82.0032,2.761,28.61,1111122 
SCCF RECON,ioos:station:SCCF:13:1,2017-07-06T17:00:00Z,26.5255,-82.0032,2.74,29.03,1111122 
SCCF RECON,ioos:station:SCCF:13:1,2017-07-06T18:00:00Z,26.5255,-82.0032,2.65,28.98,1111122 
SCCF RECON,ioos:station:SCCF:13:1,2017-07-06T19:00:00Z,26.5255,-82.0032,2.532,28.25,1111122 
SCCF RECON,ioos:station:SCCF:13:1,2017-07-06T20:00:00Z,26.5255,-82.0032,2.448,24.76,1111122 
SCCF RECON,ioos:station:SCCF:13:1,2017-07-06T21:00:00Z,26.5255,-82.0032,2.33,20.91,1111122 
SCCF RECON,ioos:station:SCCF:13:1,2017-07-06T22:00:00Z,26.5255,-82.0032,2.246,19.1,1111122 
SCCF RECON,ioos:station:SCCF:13:1,2017-07-06T23:00:00Z,26.5255,-82.0032,2.176,15.63,1111122 
SCCF RECON,ioos:station:SCCF:13:1,2017-07-07T00:00:00Z,26.5255,-82.0032,2.121,13.97,1111122 
SCCF RECON,ioos:station:SCCF:13:1,2017-07-07T01:00:00Z,26.5255,-82.0032,2.19,12.91,1111122 
SCCF RECON,ioos:station:SCCF:13:1,2017-07-07T02:00:00Z,26.5255,-82.0032,2.31,11.25,1111122 
SCCF RECON,ioos:station:SCCF:13:1,2017-07-07T03:00:00Z,26.5255,-82.0032,2.4,11.6,1111122 
SCCF RECON,ioos:station:SCCF:13:1,2017-07-07T04:00:00Z,26.5255,-82.0032,2.46,15.17,1111122 
SCCF RECON,ioos:station:SCCF:13:1,2017-07-07T05:00:00Z,26.5255,-82.0032,2.51,19.81,1111122 
SCCF RECON,ioos:station:SCCF:13:1,2017-07-07T06:00:00Z,26.5255,-82.0032,2.51,22.59,1111122 
SCCF RECON,ioos:station:SCCF:13:1,2017-07-07T07:00:00Z,26.5255,-82.0032,2.49,24.92,1111122 
SCCF RECON,ioos:station:SCCF:13:1,2017-07-07T08:00:00Z,26.5255,-82.0032,2.49,25.72,1111122 
SCCF RECON,ioos:station:SCCF:13:1,2017-07-07T09:00:00Z,26.5255,-82.0032,2.48,26.13,1111122 
SCCF RECON,ioos:station:SCCF:13:1,2017-07-07T10:00:00Z,26.5255,-82.0032,2.44,25.94,1111122 
SCCF RECON,ioos:station:SCCF:13:1,2017-07-07T11:00:00Z,26.5255,-82.0032,2.42,22.71,1111122 
SCCF RECON,ioos:station:SCCF:13:1,2017-07-07T12:00:00Z,26.5255,-82.0032,2.499,25.64,1111122 
SCCF RECON,ioos:station:SCCF:13:1,2017-07-07T13:00:00Z,26.5255,-82.0032,2.58,25.4,1111122 
SCCF RECON,ioos:station:SCCF:13:1,2017-07-07T14:00:00Z,26.5255,-82.0032,2.665,24.04,1111122 
SCCF RECON,ioos:station:SCCF:13:1,2017-07-07T15:00:00Z,26.5255,-82.0032,2.73,26.19,1111122 
SCCF RECON,ioos:station:SCCF:13:1,2017-07-07T16:00:00Z,26.5255,-82.0032,2.784,27.71,1111122 
SCCF RECON,ioos:station:SCCF:13:1,2017-07-07T17:00:00Z,26.5255,-82.0032,2.801,28.88,1111122 
SCCF RECON,ioos:station:SCCF:13:1,2017-07-07T18:00:00Z,26.5255,-82.0032,2.75,28.93,1111122 
SCCF RECON,ioos:station:SCCF:13:1,2017-07-07T19:00:00Z,26.5255,-82.0032,2.647,28.97,1111122 
SCCF RECON,ioos:station:SCCF:13:1,2017-07-07T20:00:00Z,26.5255,-82.0032,2.511,27.68,1111122 
SCCF RECON,ioos:station:SCCF:13:1,2017-07-07T21:00:00Z,26.5255,-82.0032,2.418,24.6,1111122 
SCCF RECON,ioos:station:SCCF:13:1,2017-07-07T22:00:00Z,26.5255,-82.0032,2.32,21.19,1111122 
SCCF RECON,ioos:station:SCCF:13:1,2017-07-07T23:00:00Z,26.5255,-82.0032,2.229,18.78,1111122 
SCCF RECON,ioos:station:SCCF:13:1,2017-07-08T00:00:00Z,26.5255,-82.0032,2.165,16.32,1111122 
SCCF RECON,ioos:station:SCCF:13:1,2017-07-08T01:00:00Z,26.5255,-82.0032,2.17,15.49,1111122 
SCCF RECON,ioos:station:SCCF:13:1,2017-07-08T02:00:00Z,26.5255,-82.0032,2.25,13.66,1111122 
SCCF RECON,ioos:station:SCCF:13:1,2017-07-08T03:00:00Z,26.5255,-82.0032,2.38,12.36,1111122 
SCCF RECON,ioos:station:SCCF:13:1,2017-07-08T04:00:00Z,26.5255,-82.0032,2.47,14.83,1111122 
SCCF RECON,ioos:station:SCCF:13:1,2017-07-08T05:00:00Z,26.5255,-82.0032,2.53,19.3,1111122 
SCCF RECON,ioos:station:SCCF:13:1,2017-07-08T06:00:00Z,26.5255,-82.0032,2.578,22.46,1111122 
SCCF RECON,ioos:station:SCCF:13:1,2017-07-08T07:00:00Z,26.5255,-82.0032,2.58,25.66,1111122 
SCCF RECON,ioos:station:SCCF:13:1,2017-07-08T08:00:00Z,26.5255,-82.0032,2.521,26.57,1111122 
SCCF RECON,ioos:station:SCCF:13:1,2017-07-08T09:00:00Z,26.5255,-82.0032,2.48,26.9,1111122 
SCCF RECON,ioos:station:SCCF:13:1,2017-07-08T10:00:00Z,26.5255,-82.0032,2.438,26.77,1111122 
SCCF RECON,ioos:station:SCCF:13:1,2017-07-08T11:00:00Z,26.5255,-82.0032,2.42,24.65,1111122 
SCCF RECON,ioos:station:SCCF:13:1,2017-07-08T12:00:00Z,26.5255,-82.0032,2.45,21.94,1111122 
SCCF RECON,ioos:station:SCCF:13:1,2017-07-08T13:00:00Z,26.5255,-82.0032,2.53,24.28,1111122 
SCCF RECON,ioos:station:SCCF:13:1,2017-07-08T14:00:00Z,26.5255,-82.0032,2.631,23.77,1111122 
SCCF RECON,ioos:station:SCCF:13:1,2017-07-08T15:00:00Z,26.5255,-82.0032,2.729,25.27,1111122 
SCCF RECON,ioos:station:SCCF:13:1,2017-07-08T16:00:00Z,26.5255,-82.0032,2.769,27.6,1111122 
SCCF RECON,ioos:station:SCCF:13:1,2017-07-08T17:00:00Z,26.5255,-82.0032,2.78,28.92,1111122 
SCCF RECON,ioos:station:SCCF:13:1,2017-07-08T18:00:00Z,26.5255,-82.0032,2.774,29.15,1111122 
SCCF RECON,ioos:station:SCCF:13:1,2017-07-08T19:00:00Z,26.5255,-82.0032,2.699,28.99,1111122 
SCCF RECON,ioos:station:SCCF:13:1,2017-07-08T20:00:00Z,26.5255,-82.0032,2.59,29.03,1111122 
SCCF RECON,ioos:station:SCCF:13:1,2017-07-08T21:00:00Z,26.5255,-82.0032,2.472,27.71,1111122 
SCCF RECON,ioos:station:SCCF:13:1,2017-07-08T22:00:00Z,26.5255,-82.0032,2.4,24.83,1111122 
SCCF RECON,ioos:station:SCCF:13:1,2017-07-08T23:00:00Z,26.5255,-82.0032,2.29,22.17,1111122 
SCCF RECON,ioos:station:SCCF:13:1,2017-07-09T00:00:00Z,26.5255,-82.0032,2.2,16.94,1111122 
SCCF RECON,ioos:station:SCCF:13:1,2017-07-09T01:00:00Z,26.5255,-82.0032,2.141,15.18,1111122 
SCCF RECON,ioos:station:SCCF:13:1,2017-07-09T02:00:00Z,26.5255,-82.0032,2.19,13.99,1111122 
SCCF RECON,ioos:station:SCCF:13:1,2017-07-09T03:00:00Z,26.5255,-82.0032,2.32,12.86,1111122 
SCCF RECON,ioos:station:SCCF:13:1,2017-07-09T04:00:00Z,26.5255,-82.0032,2.4,12.15,1111122 
SCCF RECON,ioos:station:SCCF:13:1,2017-07-09T05:00:00Z,26.5255,-82.0032,2.46,16.67,1111122 
SCCF RECON,ioos:station:SCCF:13:1,2017-07-09T06:00:00Z,26.5255,-82.0032,2.52,19.84,1111122 
SCCF RECON,ioos:station:SCCF:13:1,2017-07-09T07:00:00Z,26.5255,-82.0032,2.54,23.46,1111122 
SCCF RECON,ioos:station:SCCF:13:1,2017-07-09T08:00:00Z,26.5255,-82.0032,2.54,25.56,1111122 
SCCF RECON,ioos:station:SCCF:13:1,2017-07-09T09:00:00Z,26.5255,-82.0032,2.52,26.2,1111122 
SCCF RECON,ioos:station:SCCF:13:1,2017-07-09T10:00:00Z,26.5255,-82.0032,2.48,26.55,1111122 
SCCF RECON,ioos:station:SCCF:13:1,2017-07-09T11:00:00Z,26.5255,-82.0032,2.43,26.25,1111122 
SCCF RECON,ioos:station:SCCF:13:1,2017-07-09T12:00:00Z,26.5255,-82.0032,2.42,24.27,1111122 
SCCF RECON,ioos:station:SCCF:13:1,2017-07-09T13:00:00Z,26.5255,-82.0032,2.44,21.95,1111122 
SCCF RECON,ioos:station:SCCF:13:1,2017-07-09T14:00:00Z,26.5255,-82.0032,2.55,23.77,1111122 
SCCF RECON,ioos:station:SCCF:13:1,2017-07-09T15:00:00Z,26.5255,-82.0032,2.66,24.74,1111122 
SCCF RECON,ioos:station:SCCF:13:1,2017-07-09T16:00:00Z,26.5255,-82.0032,2.74,25.57,1111122 
SCCF RECON,ioos:station:SCCF:13:1,2017-07-09T17:00:00Z,26.5255,-82.0032,2.78,28.07,1111122 
SCCF RECON,ioos:station:SCCF:13:1,2017-07-09T18:00:00Z,26.5255,-82.0032,2.8,29.27,1111122 
SCCF RECON,ioos:station:SCCF:13:1,2017-07-09T19:00:00Z,26.5255,-82.0032,2.751,29.58,1111122 
SCCF RECON,ioos:station:SCCF:13:1,2017-07-09T20:00:00Z,26.5255,-82.0032,2.647,29.43,1111122 
SCCF RECON,ioos:station:SCCF:13:1,2017-07-09T21:00:00Z,26.5255,-82.0032,2.52,26.87,1111122 
SCCF RECON,ioos:station:SCCF:13:1,2017-07-09T22:00:00Z,26.5255,-82.0032,2.41,24.79,1111122 
SCCF RECON,ioos:station:SCCF:13:1,2017-07-09T23:00:00Z,26.5255,-82.0032,2.318,21.68,1111122 
SCCF RECON,ioos:station:SCCF:13:1,2017-07-10T00:00:00Z,26.5255,-82.0032,2.234,19.06,1111122 
SCCF RECON,ioos:station:SCCF:13:1,2017-07-10T01:00:00Z,26.5255,-82.0032,2.161,16.97,1111122 
SCCF RECON,ioos:station:SCCF:13:1,2017-07-10T02:00:00Z,26.5255,-82.0032,2.14,15.76,1111122 
SCCF RECON,ioos:station:SCCF:13:1,2017-07-10T03:00:00Z,26.5255,-82.0032,2.244,14.2,1111122 
SCCF RECON,ioos:station:SCCF:13:1,2017-07-10T04:00:00Z,26.5255,-82.0032,2.36,12.9,1111122 
SCCF RECON,ioos:station:SCCF:13:1,2017-07-10T05:00:00Z,26.5255,-82.0032,2.43,14.29,1111122 
SCCF RECON,ioos:station:SCCF:13:1,2017-07-10T06:00:00Z,26.5255,-82.0032,2.49,17.88,1111122 
SCCF RECON,ioos:station:SCCF:13:1,2017-07-10T07:00:00Z,26.5255,-82.0032,2.54,21.68,1111122 
SCCF RECON,ioos:station:SCCF:13:1,2017-07-10T08:00:00Z,26.5255,-82.0032,2.55,25.02,1111122 
SCCF RECON,ioos:station:SCCF:13:1,2017-07-10T09:00:00Z,26.5255,-82.0032,2.521,26.45,1111122 
SCCF RECON,ioos:station:SCCF:13:1,2017-07-10T10:00:00Z,26.5255,-82.0032,2.5,26.94,1111122 
SCCF RECON,ioos:station:SCCF:13:1,2017-07-10T11:00:00Z,26.5255,-82.0032,2.47,26.89,1111122 
SCCF RECON,ioos:station:SCCF:13:1,2017-07-10T12:00:00Z,26.5255,-82.0032,2.42,26.77,1111122 
SCCF RECON,ioos:station:SCCF:13:1,2017-07-10T13:00:00Z,26.5255,-82.0032,2.37,22.53,1111122 
SCCF RECON,ioos:station:SCCF:13:1,2017-07-10T14:00:00Z,26.5255,-82.0032,2.455,19.02,1111122 
SCCF RECON,ioos:station:SCCF:13:1,2017-07-10T15:00:00Z,26.5255,-82.0032,2.58,21.99,1111122 
SCCF RECON,ioos:station:SCCF:13:1,2017-07-10T16:00:00Z,26.5255,-82.0032,2.68,24.52,1111122 
SCCF RECON,ioos:station:SCCF:13:1,2017-07-10T17:00:00Z,26.5255,-82.0032,2.76,26.93,1111122 
SCCF RECON,ioos:station:SCCF:13:1,2017-07-10T18:00:00Z,26.5255,-82.0032,2.79,29.11,1111122 
SCCF RECON,ioos:station:SCCF:13:1,2017-07-10T19:00:00Z,26.5255,-82.0032,2.86,29.05,1111122 
SCCF RECON,ioos:station:SCCF:13:1,2017-07-10T20:00:00Z,26.5255,-82.0032,2.715,29.57,1111122 
SCCF RECON,ioos:station:SCCF:13:1,2017-07-10T21:00:00Z,26.5255,-82.0032,2.63,29.44,1111122 
SCCF RECON,ioos:station:SCCF:13:1,2017-07-10T22:00:00Z,26.5255,-82.0032,2.526,27.23,1111122 
SCCF RECON,ioos:station:SCCF:13:1,2017-07-10T23:00:00Z,26.5255,-82.0032,2.409,21.11,1111122 
SCCF RECON,ioos:station:SCCF:13:1,2017-07-11T00:00:00Z,26.5255,-82.0032,2.318,18.18,1111122 
SCCF RECON,ioos:station:SCCF:13:1,2017-07-11T01:00:00Z,26.5255,-82.0032,2.24,16.68,1111122 
SCCF RECON,ioos:station:SCCF:13:1,2017-07-11T02:00:00Z,26.5255,-82.0032,2.189,15.79,1111122 
SCCF RECON,ioos:station:SCCF:13:1,2017-07-11T03:00:00Z,26.5255,-82.0032,2.189,14.29,1111122 
SCCF RECON,ioos:station:SCCF:13:1,2017-07-11T04:00:00Z,26.5255,-82.0032,2.28,13.08,1111122 
SCCF RECON,ioos:station:SCCF:13:1,2017-07-11T05:00:00Z,26.5255,-82.0032,2.41,12.36,1111122 
SCCF RECON,ioos:station:SCCF:13:1,2017-07-11T06:00:00Z,26.5255,-82.0032,2.48,15.67,1111122 
SCCF RECON,ioos:station:SCCF:13:1,2017-07-11T07:00:00Z,26.5255,-82.0032,2.52,18.21,1111122 
SCCF RECON,ioos:station:SCCF:13:1,2017-07-11T08:00:00Z,26.5255,-82.0032,2.53,22.58,1111122 
SCCF RECON,ioos:station:SCCF:13:1,2017-07-11T09:00:00Z,26.5255,-82.0032,2.53,26.19,1111122 
SCCF RECON,ioos:station:SCCF:13:1,2017-07-11T10:00:00Z,26.5255,-82.0032,2.53,27.17,1111122 
SCCF RECON,ioos:station:SCCF:13:1,2017-07-11T11:00:00Z,26.5255,-82.0032,2.459,27.38,1111122 
SCCF RECON,ioos:station:SCCF:13:1,2017-07-11T12:00:00Z,26.5255,-82.0032,2.39,26.84,1111122 
SCCF RECON,ioos:station:SCCF:13:1,2017-07-11T13:00:00Z,26.5255,-82.0032,2.34,18.6,1111122 
SCCF RECON,ioos:station:SCCF:13:1,2017-07-11T14:00:00Z,26.5255,-82.0032,2.43,16.21,1111122 
SCCF RECON,ioos:station:SCCF:13:1,2017-07-11T15:00:00Z,26.5255,-82.0032,2.558,20.71,1111122 
SCCF RECON,ioos:station:SCCF:13:1,2017-07-11T16:00:00Z,26.5255,-82.0032,2.66,23.47,1111122 
SCCF RECON,ioos:station:SCCF:13:1,2017-07-11T17:00:00Z,26.5255,-82.0032,2.72,25.91,1111122 
SCCF RECON,ioos:station:SCCF:13:1,2017-07-11T18:00:00Z,26.5255,-82.0032,2.763,28.16,1111122 